Location: Madrid
(40.4000°N, 3.6830°W)
Time: 05:51:58
(UTC+01:00)

ISS - Pass Details

Date: 30 November 2020
Orbit: 418 x 420 km, 51.6° (Epoch: 04 December)

Event Time Altitude Azimuth Distance (km) Brightness Sun altitude
Rises 19:48:28 0° 311° (NW) 2,364 0.6 -22.2°
Reaches altitude 10° 19:51:15 10° 336° (NNW) 1,499 -0.8 -22.7°
Enters shadow 19:51:30 11° 339° (NNW) 1,443 -0.9 -22.8°
